Flag for Germany Weather past 2 weeks in Hildesheim, Lower Saxony, Germany

Now
63 °F

Fog.


Feels Like: 63 °F
Forecast: 59 / 81 °F
Wind: 5 mph from Northeast

Location: Hannover

Current Time: Jul 26, 2014 at 5:14:24 AM

Latest Report: Jul 26, 2014 at 4:50 AM


Visibility: 1 mi

Pressure: 29.92 "Hg

Humidity: 100%

Dew point: 63 °F

Location of HildesheimLocation

Historic Weather in Hildesheim — Graph

°F

Hildesheim temperature yesterday

Maximum temperature yesterday: 68 °F (at 2:20 PM)
Minimum temperature yesterday: 61 °F (at 12:20 AM)
Average temperature yesterday: 63 °F

Past Weeks' High & Low Weather Summary

 TemperatureHumidityPressure
High91 °F (Jul 19, 2:50 PM)100% (Jul 12, 4:50 AM)30.18 "Hg (Jul 12, 4:50 AM)
Low50 °F (Jul 12, 4:50 AM)26% (Jul 19, 2:20 PM)29.68 "Hg (Jul 13, 6:20 PM)
Average69 °F72%29.97 "Hg
* Reported Jul 11 3:20 AM — Jul 26 3:50 AM, Hildesheim, Weather by CustomWeather, © 2014

Note: Actual official high and low records may vary slightly from our data, if they occured in-between our weather recording intervals... More about our weather records

Advertising

Hildesheim weather history for previous 24 hours

 ConditionsComfort  
Time TempWeatherWind HumidityBarometerVisibility
3:50 AM
Jul 26
63 °FFog.3 mph100%29.92 "Hg2 mi
3:20 AM63 °FMild.5 mph100%29.92 "Hg1 mi
2:50 AM63 °FFog.1 mph100%29.92 "Hg3 mi
2:20 AM63 °FFog.5 mph100%29.92 "Hg3 mi
1:50 AM63 °FFog.1 mph100%29.92 "Hg3 mi
1:20 AM63 °FFog.1 mph100%29.92 "Hg3 mi
12:50 AM63 °FFog.1 mph100%29.92 "Hg3 mi
12:20 AM63 °FLight rain. Passing clouds.No wind100%29.92 "Hg2 mi
11:50 PM
Jul 25
63 °FLight rain. Passing clouds.1 mph100%29.92 "Hg2 mi
11:20 PM63 °FRain. Passing clouds.1 mph100%29.92 "Hg2 mi
10:50 PM64 °FRain. Passing clouds.1 mph94%29.92 "Hg2 mi
10:20 PM64 °FLight rain. Broken clouds.2 mph94%29.92 "Hg4 mi
9:50 PM64 °FRain. Partly sunny.3 mph94%29.92 "Hg4 mi
9:20 PM64 °FLight rain. Broken clouds.6 mph94%29.92 "HgN/A
8:50 PM64 °FLight rain. Broken clouds.5 mph100%29.95 "HgN/A
8:20 PM64 °FLight rain. Broken clouds.7 mph94%29.95 "HgN/A
7:50 PM66 °FLight rain. Low clouds.6 mph94%29.95 "HgN/A
7:20 PM66 °FLight rain. Fog.5 mph100%29.95 "Hg2 mi
6:50 PM66 °FLight rain. Fog.5 mph94%29.95 "Hg2 mi
6:20 PM68 °FLight rain. Fog.5 mph94%29.95 "Hg3 mi
5:50 PM68 °FLight rain. Broken clouds.3 mph94%29.95 "Hg4 mi
5:20 PM68 °FLight rain. Broken clouds.1 mph88%29.95 "Hg5 mi
4:50 PM68 °FLight rain. More clouds than sun.5 mph88%29.95 "Hg6 mi
4:20 PM68 °FLight rain. Partly sunny.6 mph94%29.95 "HgN/A
3:50 PM68 °FLight rain. Broken clouds.6 mph88%29.95 "HgN/A
3:20 PM66 °FLight rain. Broken clouds.7 mph94%29.98 "HgN/A
2:20 PM68 °FLight rain. Broken clouds.6 mph88%29.98 "HgN/A
1:50 PM66 °FLight rain. Partly sunny.7 mph94%29.98 "HgN/A
1:20 PM66 °FLight rain. Partly sunny.5 mph94%29.98 "HgN/A
12:50 PM64 °FLight rain. Partly sunny.6 mph100%29.98 "HgN/A
12:20 PM64 °FLight rain. Partly sunny.5 mph94%29.98 "Hg4 mi
11:50 AM63 °FLight rain. Partly sunny.5 mph100%29.98 "Hg5 mi
11:20 AM63 °FRain. Broken clouds.5 mph100%29.98 "Hg1 mi
10:50 AM63 °FRain. Mostly cloudy.6 mph94%29.98 "Hg2 mi
10:20 AM63 °FLight rain. Mostly cloudy.3 mph94%29.98 "Hg3 mi
9:50 AM61 °FLight rain. Mostly cloudy.3 mph100%29.98 "Hg3 mi
9:20 AM61 °FRain. More clouds than sun.2 mph100%29.98 "Hg2 mi
8:50 AM61 °FRain. More clouds than sun.6 mph94%29.98 "Hg2 mi
8:20 AM61 °FRain. Low clouds.6 mph94%29.98 "Hg3 mi
7:50 AM61 °FRain. Low clouds.5 mph94%29.98 "Hg3 mi
7:20 AM61 °FLight rain. Overcast.6 mph94%29.98 "Hg5 mi
6:50 AM61 °FLight rain. More clouds than sun.6 mph94%29.98 "Hg5 mi
6:20 AM61 °FLight rain. Mostly cloudy.7 mph94%29.98 "Hg5 mi
5:50 AM61 °FLight rain. Passing clouds.6 mph94%30.01 "Hg5 mi
5:20 AM61 °FLight rain. Partly cloudy.7 mph94%30.01 "Hg5 mi
Weather by CustomWeather, © 2014

See weather overviewHow to use our weather pages